Time,TemperatureF,DewpointF,PressureIn,WindDirection,WindDirectionDegrees,WindSpeedMPH,WindSpeedGustMPH,Humidity,HourlyPrecipIn,Conditions,Clouds,dailyrainin,SolarRadiationWatts/m^2,SoftwareType,DateUTC
2013-07-28 00:02:00,76.0,74.0,29.91,SW,228,0.0,0.0,95,0.00,,,0.00,0.000000,,2013-07-28 04:02:00,
2013-07-28 00:12:00,77.0,76.0,29.91,South,171,1.0,2.0,96,0.00,,,0.00,0.000000,,2013-07-28 04:12:00,
2013-07-28 00:22:00,76.0,74.0,29.92,South,171,0.0,1.0,95,0.00,,,0.00,0.000000,,2013-07-28 04:22:00,
2013-07-28 00:32:00,76.0,74.0,29.91,South,172,0.0,0.0,95,0.00,,,0.00,0.000000,,2013-07-28 04:32:00,
2013-07-28 00:53:00,76.0,74.0,29.91,South,171,0.0,0.0,94,0.00,,,0.00,0.000000,,2013-07-28 04:53:00,
2013-07-28 01:02:00,76.0,74.0,29.92,South,171,0.0,1.0,95,0.00,,,0.00,0.000000,,2013-07-28 05:02:00,
2013-07-28 01:12:00,76.0,74.0,29.92,South,171,0.0,1.0,95,0.00,,,0.00,0.000000,,2013-07-28 05:12:00,
2013-07-28 01:22:00,76.0,74.0,29.92,South,171,0.0,1.0,95,0.00,,,0.00,0.000000,,2013-07-28 05:22:00,
2013-07-28 01:32:00,76.0,75.0,29.91,SSE,166,1.0,3.0,96,0.00,,,0.00,0.000000,,2013-07-28 05:32:00,
2013-07-28 01:43:00,76.0,74.0,29.91,SSE,166,0.0,1.0,95,0.00,,,0.00,0.000000,,2013-07-28 05:43:00,
2013-07-28 01:53:00,76.0,75.0,29.91,SSE,166,0.0,0.0,96,0.00,,,0.00,0.000000,,2013-07-28 05:53:00,
2013-07-28 02:02:00,76.0,75.0,29.91,SSE,156,0.0,1.0,96,0.00,,,0.00,0.000000,,2013-07-28 06:02:00,
2013-07-28 02:12:00,76.0,75.0,29.91,SSE,156,0.0,1.0,96,0.00,,,0.00,0.000000,,2013-07-28 06:12:00,
2013-07-28 02:22:00,77.0,76.0,29.91,SE,143,0.0,3.0,96,0.00,,,0.00,0.000000,,2013-07-28 06:22:00,
2013-07-28 02:32:00,77.0,76.0,29.91,SE,143,0.0,1.0,96,0.00,,,0.00,0.000000,,2013-07-28 06:32:00,
2013-07-28 02:43:00,77.0,76.0,29.90,SE,144,0.0,1.0,96,0.00,,,0.00,0.000000,,2013-07-28 06:43:00,
2013-07-28 02:52:00,77.0,76.0,29.90,SE,144,1.0,2.0,96,0.00,,,0.00,0.000000,,2013-07-28 06:52:00,
2013-07-28 03:02:00,77.0,76.0,29.90,SE,143,0.0,1.0,96,0.00,,,0.00,0.000000,,2013-07-28 07:02:00,
2013-07-28 03:12:00,77.0,76.0,29.90,SSE,151,1.0,2.0,96,0.00,,,0.00,0.000000,,2013-07-28 07:12:00,
2013-07-28 03:23:00,78.0,76.0,29.90,SSE,160,0.0,3.0,95,0.00,,,0.00,0.000000,,2013-07-28 07:23:00,
2013-07-28 03:32:00,78.0,76.0,29.90,SSE,160,0.0,2.0,94,0.00,,,0.00,0.000000,,2013-07-28 07:32:00,
2013-07-28 03:53:00,78.0,76.0,29.90,SSE,160,0.0,0.0,93,0.00,,,0.00,0.000000,,2013-07-28 07:53:00,
2013-07-28 04:02:00,77.0,75.0,29.90,SSE,160,0.0,1.0,93,0.00,,,0.00,0.000000,,2013-07-28 08:02:00,
2013-07-28 04:12:00,77.0,75.0,29.90,SSE,161,0.0,0.0,93,0.00,,,0.00,0.000000,,2013-07-28 08:12:00,
2013-07-28 04:23:00,77.0,75.0,29.90,SSE,160,0.0,0.0,93,0.00,,,0.00,0.000000,,2013-07-28 08:23:00,
2013-07-28 04:33:00,77.0,75.0,29.90,SSE,160,0.0,0.0,93,0.00,,,0.00,0.000000,,2013-07-28 08:33:00,
2013-07-28 04:43:00,77.0,75.0,29.90,SSE,160,0.0,0.0,93,0.00,,,0.00,0.000000,,2013-07-28 08:43:00,
2013-07-28 04:53:00,77.0,75.0,29.90,SSE,161,0.0,0.0,93,0.00,,,0.00,0.000000,,2013-07-28 08:53:00,
2013-07-28 05:02:00,76.0,74.0,29.90,SSE,161,0.0,0.0,94,0.00,,,0.00,0.000000,,2013-07-28 09:02:00,
2013-07-28 05:12:00,76.0,74.0,29.90,SSE,160,0.0,1.0,94,0.00,,,0.00,0.000000,,2013-07-28 09:12:00,
2013-07-28 05:22:00,76.0,74.0,29.90,SSE,160,0.0,1.0,94,0.00,,,0.00,0.000000,,2013-07-28 09:22:00,
2013-07-28 05:32:00,76.0,74.0,29.90,SSE,161,0.0,1.0,95,0.00,,,0.00,0.000000,,2013-07-28 09:32:00,
2013-07-28 05:43:00,76.0,74.0,29.90,SSE,161,0.0,1.0,95,0.00,,,0.00,0.000000,,2013-07-28 09:43:00,
2013-07-28 05:53:00,76.0,74.0,29.90,SSE,161,0.0,0.0,95,0.00,,,0.00,0.000000,,2013-07-28 09:53:00,
2013-07-28 06:02:00,76.0,74.0,29.91,SSE,160,0.0,0.0,95,0.00,,,0.00,0.000000,,2013-07-28 10:02:00,
2013-07-28 06:12:00,76.0,74.0,29.91,SSE,161,0.0,0.0,95,0.00,,,0.00,0.000000,,2013-07-28 10:12:00,
2013-07-28 06:22:00,76.0,74.0,29.91,SSE,161,0.0,0.0,95,0.00,,,0.00,0.000000,,2013-07-28 10:22:00,
2013-07-28 06:33:00,76.0,75.0,29.91,SSE,160,0.0,0.0,96,0.00,,,0.00,0.000000,,2013-07-28 10:33:00,
2013-07-28 06:42:00,76.0,75.0,29.92,SSE,161,0.0,0.0,96,0.00,,,0.00,0.000000,,2013-07-28 10:42:00,
2013-07-28 06:53:00,76.0,75.0,29.92,SSE,161,0.0,0.0,96,0.00,,,0.00,0.000000,,2013-07-28 10:53:00,
2013-07-28 07:12:00,76.0,75.0,29.92,SSE,161,0.0,0.0,96,0.00,,,0.00,0.000000,,2013-07-28 11:12:00,
2013-07-28 07:22:00,76.0,75.0,29.93,SSE,160,0.0,0.0,96,0.00,,,0.00,0.000000,,2013-07-28 11:22:00,
2013-07-28 07:33:00,76.0,75.0,29.93,SSE,161,0.0,0.0,96,0.00,,,0.00,0.000000,,2013-07-28 11:33:00,
2013-07-28 07:43:00,76.0,75.0,29.93,SSE,161,0.0,0.0,96,0.00,,,0.00,0.000000,,2013-07-28 11:43:00,
2013-07-28 07:54:00,76.0,75.0,29.93,SSE,160,0.0,0.0,96,0.00,,,0.00,0.000000,,2013-07-28 11:54:00,
2013-07-28 08:03:00,76.0,75.0,29.94,SSE,161,0.0,0.0,97,0.00,,,0.00,0.000000,,2013-07-28 12:03:00,
2013-07-28 08:13:00,77.0,76.0,29.94,SSE,161,0.0,0.0,97,0.00,,,0.00,0.000000,,2013-07-28 12:13:00,
2013-07-28 08:22:00,77.0,76.0,29.94,SSE,161,0.0,0.0,97,0.00,,,0.00,0.000000,,2013-07-28 12:22:00,
2013-07-28 08:33:00,77.0,76.0,29.95,SSE,160,0.0,0.0,96,0.00,,,0.00,0.000000,,2013-07-28 12:33:00,
2013-07-28 08:43:00,77.0,76.0,29.95,SSE,160,0.0,0.0,97,0.00,,,0.00,0.000000,,2013-07-28 12:43:00,
2013-07-28 08:53:00,78.0,77.0,29.95,SSE,161,0.0,1.0,96,0.00,,,0.00,0.000000,,2013-07-28 12:53:00,
2013-07-28 09:12:00,78.0,76.0,29.96,SSE,161,0.0,0.0,95,0.00,,,0.00,0.000000,,2013-07-28 13:12:00,
2013-07-28 09:22:00,79.0,77.0,29.95,SSE,161,0.0,1.0,94,0.00,,,0.00,0.000000,,2013-07-28 13:22:00,
2013-07-28 09:32:00,80.0,78.0,29.96,SSE,160,0.0,1.0,93,0.00,,,0.00,0.000000,,2013-07-28 13:32:00,
2013-07-28 09:43:00,80.0,77.0,29.96,NE,39,0.0,1.0,92,0.00,,,0.00,0.000000,,2013-07-28 13:43:00,
2013-07-28 09:53:00,80.0,77.0,29.95,NE,40,0.0,1.0,91,0.00,,,0.00,0.000000,,2013-07-28 13:53:00,
2013-07-28 10:02:00,80.0,77.0,29.96,NE,37,1.0,3.0,91,0.00,,,0.00,0.000000,,2013-07-28 14:02:00,
2013-07-28 10:23:00,80.0,77.0,29.96,NE,36,1.0,2.0,90,0.00,,,0.00,0.000000,,2013-07-28 14:23:00,
2013-07-28 10:53:00,81.0,77.0,29.96,NNE,31,0.0,2.0,87,0.00,,,0.00,0.000000,,2013-07-28 14:53:00,
2013-07-28 11:03:00,82.0,78.0,29.96,NNE,31,0.0,1.0,87,0.00,,,0.00,0.000000,,2013-07-28 15:03:00,
2013-07-28 11:13:00,82.0,77.0,29.96,NE,38,0.0,2.0,86,0.00,,,0.00,0.000000,,2013-07-28 15:13:00,
2013-07-28 11:23:00,82.0,76.0,29.96,NE,37,0.0,2.0,83,0.00,,,0.00,0.000000,,2013-07-28 15:23:00,
2013-07-28 11:33:00,82.0,76.0,29.96,North,8,1.0,3.0,82,0.00,,,0.00,0.000000,,2013-07-28 15:33:00,
2013-07-28 11:43:00,82.0,76.0,29.96,ENE,70,0.0,1.0,83,0.00,,,0.00,0.000000,,2013-07-28 15:43:00,
2013-07-28 11:53:00,82.0,76.0,29.96,ENE,70,0.0,1.0,82,0.00,,,0.00,0.000000,,2013-07-28 15:53:00,
2013-07-28 12:03:00,82.0,76.0,29.96,ENE,70,0.0,1.0,83,0.00,,,0.00,0.000000,,2013-07-28 16:03:00,
2013-07-28 12:12:00,82.0,76.0,29.96,ENE,70,0.0,1.0,82,0.00,,,0.00,0.000000,,2013-07-28 16:12:00,
2013-07-28 12:22:00,82.0,76.0,29.96,ENE,70,0.0,1.0,82,0.00,,,0.00,0.000000,,2013-07-28 16:22:00,
2013-07-28 12:33:00,83.0,76.0,29.96,ESE,120,0.0,2.0,80,0.00,,,0.00,0.000000,,2013-07-28 16:33:00,
2013-07-28 12:43:00,83.0,77.0,29.96,ESE,120,0.0,1.0,81,0.00,,,0.00,0.000000,,2013-07-28 16:43:00,
2013-07-28 12:52:00,84.0,78.0,29.96,ESE,105,0.0,2.0,81,0.00,,,0.00,0.000000,,2013-07-28 16:52:00,
2013-07-28 13:02:00,85.0,78.0,29.96,SSW,196,0.0,2.0,79,0.00,,,0.00,0.000000,,2013-07-28 17:02:00,
2013-07-28 13:13:00,85.0,76.0,29.96,South,187,0.0,2.0,75,0.00,,,0.00,0.000000,,2013-07-28 17:13:00,
2013-07-28 13:23:00,86.0,78.0,29.96,SSE,152,2.0,3.0,76,0.00,,,0.00,0.000000,,2013-07-28 17:23:00,
2013-07-28 13:33:00,86.0,77.0,29.96,SSE,157,0.0,3.0,74,0.00,,,0.00,0.000000,,2013-07-28 17:33:00,
2013-07-28 13:43:00,86.0,77.0,29.96,SSE,157,0.0,3.0,74,0.00,,,0.00,0.000000,,2013-07-28 17:43:00,
2013-07-28 14:03:00,86.0,78.0,29.96,SSE,159,2.0,5.0,78,0.00,,,0.00,0.000000,,2013-07-28 18:03:00,
2013-07-28 14:23:00,86.0,78.0,29.96,South,169,2.0,5.0,76,0.00,,,0.00,0.000000,,2013-07-28 18:23:00,
2013-07-28 14:33:00,86.0,78.0,29.96,South,176,2.0,7.0,76,0.00,,,0.00,0.000000,,2013-07-28 18:33:00,
2013-07-28 14:43:00,86.0,78.0,29.96,SSE,157,1.0,3.0,78,0.00,,,0.00,0.000000,,2013-07-28 18:43:00,
2013-07-28 14:52:00,86.0,78.0,29.96,SSE,156,1.0,6.0,77,0.00,,,0.00,0.000000,,2013-07-28 18:52:00,
2013-07-28 15:03:00,86.0,78.0,29.96,SSE,158,1.0,7.0,78,0.00,,,0.00,0.000000,,2013-07-28 19:03:00,
2013-07-28 15:12:00,86.0,78.0,29.96,SSE,158,1.0,7.0,78,0.00,,,0.00,0.000000,,2013-07-28 19:12:00,
2013-07-28 15:23:00,86.0,78.0,29.95,SE,137,0.0,3.0,78,0.00,,,0.00,0.000000,,2013-07-28 19:23:00,
2013-07-28 15:33:00,86.0,78.0,29.95,SSE,166,0.0,5.0,78,0.00,,,0.00,0.000000,,2013-07-28 19:33:00,
2013-07-28 15:53:00,87.0,79.0,29.95,SSE,160,1.0,3.0,77,0.00,,,0.00,0.000000,,2013-07-28 19:53:00,
2013-07-28 16:03:00,87.0,79.0,29.95,SE,141,0.0,3.0,77,0.00,,,0.00,0.000000,,2013-07-28 20:03:00,
2013-07-28 16:23:00,89.0,79.0,29.94,East,85,1.0,3.0,73,0.00,,,0.00,0.000000,,2013-07-28 20:23:00,
2013-07-28 16:33:00,89.0,77.0,29.94,South,184,1.0,3.0,69,0.00,,,0.00,0.000000,,2013-07-28 20:33:00,
2013-07-28 16:52:00,89.0,79.0,29.94,SSE,167,1.0,3.0,72,0.00,,,0.00,0.000000,,2013-07-28 20:52:00,
2013-07-28 17:03:00,88.0,78.0,29.94,NW,324,0.0,2.0,73,0.00,,,0.00,0.000000,,2013-07-28 21:03:00,
2013-07-28 17:13:00,88.0,78.0,29.94,NW,324,0.0,2.0,73,0.00,,,0.00,0.000000,,2013-07-28 21:13:00,
2013-07-28 17:23:00,87.0,76.0,29.94,SSE,152,2.0,5.0,71,0.00,,,0.00,0.000000,,2013-07-28 21:23:00,
2013-07-28 17:33:00,86.0,77.0,29.94,South,171,1.0,3.0,75,0.00,,,0.00,0.000000,,2013-07-28 21:33:00,
2013-07-28 17:44:00,86.0,77.0,29.94,SSW,212,2.0,8.0,75,0.00,,,0.00,0.000000,,2013-07-28 21:44:00,
2013-07-28 17:52:00,86.0,77.0,29.94,South,171,4.0,9.0,74,0.00,,,0.00,0.000000,,2013-07-28 21:52:00,
2013-07-28 18:02:00,86.0,78.0,29.94,SSE,151,0.0,7.0,76,0.00,,,0.00,0.000000,,2013-07-28 22:02:00,
2013-07-28 18:12:00,86.0,77.0,29.94,SSE,158,3.0,7.0,74,0.00,,,0.00,0.000000,,2013-07-28 22:12:00,
2013-07-28 18:22:00,85.0,76.0,29.94,SSE,158,4.0,10.0,74,0.00,,,0.00,0.000000,,2013-07-28 22:22:00,
2013-07-28 18:32:00,85.0,77.0,29.95,SSE,162,2.0,7.0,76,0.00,,,0.00,0.000000,,2013-07-28 22:32:00,
2013-07-28 18:43:00,85.0,77.0,29.96,SSE,147,4.0,8.0,78,0.00,,,0.00,0.000000,,2013-07-28 22:43:00,
2013-07-28 18:52:00,85.0,77.0,29.96,SSE,152,6.0,9.0,78,0.00,,,0.00,0.000000,,2013-07-28 22:52:00,
2013-07-28 19:03:00,84.0,77.0,29.96,SE,131,4.0,10.0,80,0.00,,,0.00,0.000000,,2013-07-28 23:03:00,
2013-07-28 19:12:00,85.0,78.0,29.97,South,176,4.0,10.0,80,0.00,,,0.00,0.000000,,2013-07-28 23:12:00,
2013-07-28 19:22:00,84.0,77.0,29.97,South,181,3.0,10.0,80,0.00,,,0.00,0.000000,,2013-07-28 23:22:00,
2013-07-28 19:33:00,84.0,78.0,29.97,SE,144,3.0,8.0,81,0.00,,,0.00,0.000000,,2013-07-28 23:33:00,
2013-07-28 19:43:00,84.0,78.0,29.98,SSW,193,1.0,10.0,82,0.00,,,0.00,0.000000,,2013-07-28 23:43:00,
2013-07-28 19:53:00,83.0,78.0,29.98,SSE,168,3.0,12.0,84,0.00,,,0.00,0.000000,,2013-07-28 23:53:00,
2013-07-28 20:03:00,83.0,78.0,29.98,SSE,151,2.0,7.0,85,0.00,,,0.00,0.000000,,2013-07-29 00:03:00,
2013-07-28 20:22:00,82.0,77.0,29.99,SSE,166,3.0,7.0,86,0.00,,,0.00,0.000000,,2013-07-29 00:22:00,
2013-07-28 20:32:00,82.0,78.0,29.99,SSE,161,4.0,8.0,87,0.00,,,0.00,0.000000,,2013-07-29 00:32:00,
2013-07-28 20:52:00,82.0,78.0,29.99,SSW,196,3.0,9.0,87,0.00,,,0.00,0.000000,,2013-07-29 00:52:00,
2013-07-28 21:02:00,81.0,77.0,29.99,SE,135,2.0,5.0,88,0.00,,,0.00,0.000000,,2013-07-29 01:02:00,
2013-07-28 21:14:00,81.0,77.0,29.98,SE,133,2.0,5.0,89,0.00,,,0.00,0.000000,,2013-07-29 01:14:00,
2013-07-28 21:29:00,81.0,77.0,29.98,SE,133,2.0,5.0,89,0.00,,,0.00,0.000000,,2013-07-29 01:29:00,
2013-07-28 21:37:00,81.0,77.0,29.98,SSE,156,0.0,3.0,89,0.00,,,0.00,0.000000,,2013-07-29 01:37:00,
2013-07-28 21:46:00,80.0,77.0,29.99,SE,137,0.0,3.0,90,0.00,,,0.00,0.000000,,2013-07-29 01:46:00,
2013-07-28 22:07:00,80.0,77.0,29.99,SSE,168,0.0,1.0,91,0.00,,,0.00,0.000000,,2013-07-29 02:07:00,
2013-07-28 22:27:00,79.0,76.0,29.99,SSE,160,0.0,2.0,92,0.00,,,0.00,0.000000,,2013-07-29 02:27:00,
2013-07-28 22:38:00,79.0,76.0,30.00,SSE,160,1.0,2.0,92,0.00,,,0.00,0.000000,,2013-07-29 02:38:00,
2013-07-28 23:05:00,78.0,76.0,29.99,SSE,160,0.0,3.0,93,0.00,,,0.00,0.000000,,2013-07-29 03:05:00,
2013-07-28 23:17:00,78.0,76.0,29.99,SSE,160,0.0,3.0,93,0.00,,,0.00,0.000000,,2013-07-29 03:17:00,
2013-07-28 23:48:00,78.0,76.0,29.99,SSE,159,0.0,1.0,93,0.00,,,0.00,0.000000,,2013-07-29 03:48:00,
2013-07-28 23:58:00,78.0,76.0,29.99,SSE,159,0.0,2.0,94,0.00,,,0.00,0.000000,,2013-07-29 03:58:00,